Погода в Кайбичевом

Россия / Республика Мордовия     54°20′22″N   46°14′57″E
В апреле 2022 года жителям России запретили посещать сайт meteo.paraplan.net по решению Генеральной прокуратуры. Аудитория сайта уменьшилась в 10 раз. Владельцы сайта не видят смысла в поддержке погодного сервера в таких условиях. Сайт будет закрыт в октябре.
темп.,
°C
ветер,
м/с
пор.,
м/с
влажн.,
%
обл.,
%
осадки,
мм/ч
давл.,
гПа
погр.,
м
30 сентября, пт
пт3000:00+12зсз1194100 0.0 101611
03:00+12сз119099 0.0 101812
06:00+11в1194100 0.0 101918
09:00+13вюв128694 0.0 1021164
12:00+16юв2262100 0.1 10211079
15:00+16вюв2264100 0.1 1021737
18:00+13вюв2686100 0.0 1022162
21:00+12юв2588100 0.0 1022122
1 октября, сб
сб100:00+11юв229495 0.0 102223
03:00+10ююв249568 0.0 102268
06:00+11ююв279182 0.0 1022208
09:00+14ю4880100 0.0 1022408
12:00+15ю367799 0.0 1021244
15:00+16ю41076100 0.0 1020495
18:00+15ююв31078100 0.0 1019314
21:00+15ююв41277100 0.0 1017486
2 октября, вс
вс200:00+14ююв4138311 0.0 1015404
03:00+14ю5148181 0.0 1014490
06:00+13ю51384100 0.1 1012429
09:00+16ююз61179100 0.2 1012607
12:00+18юз697596 0.3 1012972
15:00+20юз586596 0.3 10121157
18:00+15ююз2287100 0.3 101219
21:00+14юв2493100 0.7 101183
3 октября, пн
пн300:00+15ююв31090100 0.9 1010298
03:00+15ююв41293100 3.0 1010423
06:00+15ююв51386100 0.4 1009387
09:00+16ююв61668100 0.4 1010674
12:00+17ююв81759100 0.0 1010982
15:00+18ююв81751100 0.0 10101190
18:00+17ююв81751100 0.0 10121279
21:00+17ююв81848100 0.0 10121314
4 октября, вт
вт400:00+16ю71551100 0.0 10141234
03:00+12ю71681100 1.3 1015888
06:00+11ю51371100 1.0 1016869
09:00+10ю51373100 1.4 1018780
12:00+10ю51384100 0.4 1020621
15:00+10ююв51083100 0.8 1021493
18:00+10ю51278100 0.0 1022593
21:00+10ю41187100 0.0 1023464